Princeton, MN

4:28 AM CST on November 15, 2019 (GMT -0600)
Princeton Municipal

Weather History for KPNM - September, 2019

Change the Weather History Date:

Friday, September 13, 2019

  Actual Average Record
Temperature  
Mean Temperature 58 °F -  
Max Temperature 64 °F 71 °F 89 °F (1998)
Min Temperature 51 °F 48 °F 32 °F (2014)
Degree Days  
Heating Degree Days 8    
Growing Degree Days 8 (Base 50)    
Moisture  
Dew Point 53 °F    
Average Humidity 86    
Maximum Humidity 100    
Minimum Humidity 67    
Precipitation  
Precipitation 0.00 in - - ()
Sea Level Pressure  
Sea Level Pressure 29.92 in    
Wind  
Wind Speed 8 mph (WSW)    
Max Wind Speed 17 mph    
Max Gust Speed 28 mph    
Visibility 9 miles    
Events Rain    
Averages and records for this station are not official NWS values.
T = Trace of Precipitation, MM = Missing Value Source: NWS Daily Summary

Daily Weather History Graph

Daily Weather History Graph

Search for Another Location

Airport or City:

Astronomy

Sep. 13, 2019 Rise Set
Actual Time 6:50 AM CDT 7:29 PM CDT
Civil Twilight 6:20 AM CDT 7:59 PM CDT
Nautical Twilight 5:44 AM CDT 8:35 PM CDT
Astronomical Twilight 5:07 AM CDT 9:11 PM CDT
Moon 7:47 PM CDT (9/13) 6:02 AM CDT (9/13)
Length of Visible Light 13h 39m
Length of Day
12h 39m
Full, 100% of the Moon is Illuminated
Sep 13
Full
Sep 13
Full
Sep 21
Last Quarter
Sep 28
New
Oct 5
First Quarter

Hourly Weather History & Observations

Time (CDT) Temp. Dew Point Humidity Pressure Visibility Wind Dir Wind Speed Gust Speed Precip Events Conditions
12:00 AM 62.6 °F 62.6 °F 100% 29.80 in 5.0 mi SSE 4.6 mph - N/A   Mostly Cloudy
12:17 AM 64.4 °F 62.6 °F 94% 29.79 in 10.0 mi Calm Calm - N/A   Mostly Cloudy
12:36 AM 64.4 °F 62.6 °F 94% 29.79 in 10.0 mi Calm Calm - N/A   Overcast
12:55 AM 64.4 °F 62.6 °F 94% 29.78 in 10.0 mi South 8.1 mph - N/A   Mostly Cloudy
1:16 AM 62.6 °F 62.6 °F 100% 29.78 in 10.0 mi SSW 5.8 mph - N/A   Mostly Cloudy
1:39 AM 62.6 °F 60.8 °F 94% 29.78 in 10.0 mi SSW 5.8 mph - N/A   Scattered Clouds
1:57 AM 62.6 °F 60.8 °F 94% 29.78 in 10.0 mi South 3.5 mph - N/A   Scattered Clouds
2:15 AM 62.6 °F 60.8 °F 94% 29.77 in 10.0 mi SSW 5.8 mph - N/A   Overcast
2:35 AM 62.6 °F 60.8 °F 94% 29.78 in 4.0 mi WSW 9.2 mph 16.1 mph N/A Rain Rain
2:55 AM 60.8 °F 57.2 °F 88% 29.79 in 5.0 mi WSW 10.4 mph 18.4 mph N/A   Light Drizzle
2:59 AM 60.8 °F 57.2 °F 88% 29.79 in 4.0 mi West 10.4 mph 18.4 mph N/A   Drizzle
3:18 AM 57.2 °F 57.2 °F 100% 29.80 in 10.0 mi WSW 6.9 mph - N/A   Light Drizzle
3:36 AM 57.2 °F 55.4 °F 94% 29.80 in 7.0 mi WSW 8.1 mph - N/A Rain Rain
3:55 AM 57.2 °F 55.4 °F 94% 29.80 in 10.0 mi WSW 5.8 mph - N/A   Overcast
4:15 AM 57.2 °F 55.4 °F 94% 29.80 in 10.0 mi WSW 6.9 mph - N/A   Mostly Cloudy
4:16 AM 57.2 °F 55.4 °F 94% 29.80 in 10.0 mi WSW 6.9 mph - N/A   Mostly Cloudy
4:39 AM 57.2 °F 55.4 °F 94% 29.80 in 7.0 mi WSW 5.8 mph - N/A   Scattered Clouds
4:57 AM 57.2 °F 55.4 °F 94% 29.81 in 7.0 mi WSW 8.1 mph - N/A   Light Drizzle
5:15 AM 57.2 °F 55.4 °F 94% 29.81 in 10.0 mi SW 4.6 mph - N/A   Mostly Cloudy
5:35 AM 55.4 °F 55.4 °F 100% 29.81 in 4.0 mi SW 6.9 mph - N/A Rain Light Rain
5:36 AM 55.4 °F 55.4 °F 100% 29.81 in 4.0 mi SW 9.2 mph - N/A Rain Light Rain
5:55 AM 55.4 °F 53.6 °F 94% 29.81 in 10.0 mi WSW 8.1 mph - N/A   Overcast
6:00 AM 55.4 °F 53.6 °F 94% 29.81 in 10.0 mi SW 5.8 mph - N/A   Mostly Cloudy
6:17 AM 55.4 °F 53.6 °F 94% 29.81 in 10.0 mi SW 5.8 mph - N/A   Mostly Cloudy
6:36 AM 55.4 °F 53.6 °F 94% 29.82 in 10.0 mi SW 6.9 mph - N/A   Overcast
7:15 AM 55.4 °F 53.6 °F 94% 29.83 in 10.0 mi SW 5.8 mph - N/A   Overcast
7:16 AM 55.4 °F 53.6 °F 94% 29.83 in 10.0 mi SW 5.8 mph - N/A   Overcast
7:39 AM 55.4 °F 53.6 °F 94% 29.84 in 7.0 mi SW 10.4 mph - N/A   Overcast
7:57 AM 55.4 °F 51.8 °F 88% 29.85 in 7.0 mi WSW 13.8 mph 20.7 mph N/A   Overcast
8:15 AM 53.6 °F 51.8 °F 94% 29.86 in 10.0 mi WSW 10.4 mph 18.4 mph N/A   Overcast
8:16 AM 53.6 °F 51.8 °F 94% 29.86 in 10.0 mi WSW 9.2 mph 18.4 mph N/A   Overcast
8:35 AM 53.6 °F 51.8 °F 94% 29.86 in 10.0 mi WSW 11.5 mph 21.9 mph N/A   Overcast
8:55 AM 55.4 °F 51.8 °F 88% 29.87 in 10.0 mi West 10.4 mph 18.4 mph N/A   Mostly Cloudy
9:18 AM 55.4 °F 51.8 °F 88% 29.88 in 10.0 mi WSW 10.4 mph 18.4 mph N/A   Mostly Cloudy
9:36 AM 55.4 °F 50.0 °F 82% 29.88 in 10.0 mi West 13.8 mph 21.9 mph N/A   Mostly Cloudy
9:55 AM 55.4 °F 50.0 °F 82% 29.89 in 7.0 mi WSW 15.0 mph 23.0 mph N/A   Overcast
9:56 AM 55.4 °F 50.0 °F 82% 29.89 in 7.0 mi WSW 17.3 mph 23.0 mph N/A   Overcast
10:15 AM 57.2 °F 50.0 °F 77% 29.89 in 10.0 mi WSW 12.7 mph 25.3 mph N/A   Overcast
10:39 AM 57.2 °F 50.0 °F 77% 29.90 in 10.0 mi SW 13.8 mph 24.2 mph N/A   Overcast
10:57 AM 57.2 °F 51.8 °F 82% 29.91 in 10.0 mi WSW 17.3 mph 25.3 mph N/A   Overcast
11:15 AM 57.2 °F 48.2 °F 72% 29.91 in 10.0 mi WSW 13.8 mph 20.7 mph N/A   Overcast
11:35 AM 57.2 °F 50.0 °F 77% 29.92 in 10.0 mi WSW 10.4 mph - N/A   Overcast
11:36 AM 57.2 °F 50.0 °F 77% 29.92 in 10.0 mi WSW 11.5 mph - N/A   Overcast
11:55 AM 57.2 °F 50.0 °F 77% 29.92 in 10.0 mi WSW 13.8 mph 24.2 mph N/A   Overcast
12:00 PM 59.0 °F 50.0 °F 72% 29.92 in 10.0 mi WSW 16.1 mph 24.2 mph N/A   Overcast
12:18 PM 57.2 °F 50.0 °F 77% 29.93 in 10.0 mi WSW 15.0 mph 25.3 mph N/A   Overcast
12:36 PM 57.2 °F 48.2 °F 72% 29.94 in 10.0 mi WSW 15.0 mph 25.3 mph N/A   Overcast
12:55 PM 59.0 °F 48.2 °F 67% 29.94 in 10.0 mi WSW 15.0 mph 23.0 mph N/A   Overcast
12:56 PM 59.0 °F 48.2 °F 67% 29.94 in 10.0 mi WSW 17.3 mph 24.2 mph N/A   Overcast
1:15 PM 59.0 °F 50.0 °F 72% 29.94 in 10.0 mi WSW 15.0 mph 23.0 mph N/A   Overcast
1:16 PM 59.0 °F 50.0 °F 72% 29.94 in 10.0 mi WSW 16.1 mph 23.0 mph N/A   Overcast
1:39 PM 60.8 °F 51.8 °F 72% 29.95 in 10.0 mi WSW 17.3 mph 23.0 mph N/A   Overcast
1:56 PM 57.2 °F 50.0 °F 77% 29.95 in 10.0 mi WSW 16.1 mph 24.2 mph N/A   Overcast
2:15 PM 57.2 °F 50.0 °F 77% 29.95 in 10.0 mi WSW 10.4 mph 24.2 mph N/A   Overcast
2:16 PM 57.2 °F 50.0 °F 77% 29.95 in 10.0 mi WSW 11.5 mph 20.7 mph N/A   Overcast
2:35 PM 57.2 °F 51.8 °F 82% 29.96 in 7.0 mi WSW 16.1 mph 23.0 mph N/A   Overcast
2:36 PM 57.2 °F 51.8 °F 82% 29.96 in 7.0 mi WSW 13.8 mph 23.0 mph N/A   Overcast
2:55 PM 57.2 °F 51.8 °F 82% 29.97 in 7.0 mi WSW 12.7 mph 21.9 mph N/A   Overcast
3:18 PM 57.2 °F 50.0 °F 77% 29.97 in 10.0 mi West 15.0 mph 27.6 mph N/A   Overcast
3:36 PM 57.2 °F 51.8 °F 82% 29.98 in 7.0 mi WSW 9.2 mph 17.3 mph N/A Rain Rain
3:55 PM 55.4 °F 51.8 °F 88% 29.98 in 10.0 mi WSW 12.7 mph 18.4 mph N/A   Light Drizzle
4:15 PM 57.2 °F 51.8 °F 82% 29.98 in 10.0 mi WSW 15.0 mph 20.7 mph N/A   Overcast
4:39 PM 57.2 °F 51.8 °F 82% 29.99 in 10.0 mi WSW 13.8 mph 23.0 mph N/A   Overcast
4:57 PM 57.2 °F 50.0 °F 77% 29.99 in 10.0 mi WSW 16.1 mph 23.0 mph N/A   Overcast
5:16 PM 59.0 °F 50.0 °F 72% 29.99 in 10.0 mi West 15.0 mph 23.0 mph N/A   Overcast
5:35 PM 59.0 °F 50.0 °F 72% 30.00 in 10.0 mi West 15.0 mph 24.2 mph N/A   Overcast
5:55 PM 59.0 °F 50.0 °F 72% 30.00 in 10.0 mi West 9.2 mph - N/A   Overcast
6:18 PM 59.0 °F 51.8 °F 77% 30.00 in 10.0 mi WSW 8.1 mph - N/A   Overcast
6:36 PM 59.0 °F 51.8 °F 77% 30.00 in 10.0 mi WSW 9.2 mph - N/A   Overcast
6:55 PM 57.2 °F 51.8 °F 82% 30.01 in 10.0 mi WSW 6.9 mph - N/A   Mostly Cloudy
6:56 PM 57.2 °F 51.8 °F 82% 30.01 in 10.0 mi WSW 8.1 mph - N/A   Mostly Cloudy
7:15 PM 57.2 °F 51.8 °F 82% 30.01 in 10.0 mi WSW 4.6 mph - N/A   Scattered Clouds
7:16 PM 57.2 °F 51.8 °F 82% 30.01 in 10.0 mi SW 4.6 mph - N/A   Scattered Clouds
7:39 PM 55.4 °F 51.8 °F 88% 30.02 in 10.0 mi Calm Calm - N/A   Clear
7:56 PM 55.4 °F 51.8 °F 88% 30.03 in 10.0 mi SW 3.5 mph - N/A   Scattered Clouds
8:15 PM 55.4 °F 51.8 °F 88% 30.03 in 10.0 mi SW 3.5 mph - N/A   Scattered Clouds
8:16 PM 55.4 °F 51.8 °F 88% 30.03 in 10.0 mi Calm Calm - N/A   Scattered Clouds
8:35 PM 53.6 °F 51.8 °F 94% 30.04 in 10.0 mi SW 3.5 mph - N/A   Clear
8:55 PM 53.6 °F 51.8 °F 94% 30.05 in 10.0 mi SSW 3.5 mph - N/A   Clear
9:17 PM 53.6 °F 51.8 °F 94% 30.05 in 10.0 mi Calm Calm - N/A   Clear
9:36 PM 53.6 °F 51.8 °F 94% 30.05 in 10.0 mi Calm Calm - N/A   Clear
9:55 PM 53.6 °F 51.8 °F 94% 30.05 in 10.0 mi Calm Calm - N/A   Clear
9:56 PM 53.6 °F 51.8 °F 94% 30.05 in 10.0 mi Calm Calm - N/A   Clear
10:15 PM 53.6 °F 51.8 °F 94% 30.05 in 10.0 mi SSW 3.5 mph - N/A   Clear
10:39 PM 53.6 °F 50.0 °F 88% 30.06 in 10.0 mi Calm Calm - N/A   Clear
10:57 PM 53.6 °F 50.0 °F 88% 30.06 in 10.0 mi Calm Calm - N/A   Clear
11:15 PM 51.8 °F 50.0 °F 94% 30.06 in 10.0 mi Calm Calm - N/A   Clear
11:16 PM 51.8 °F 50.0 °F 94% 30.06 in 10.0 mi Calm Calm - N/A   Clear
11:35 PM 51.8 °F 50.0 °F 94% 30.06 in 10.0 mi Calm Calm - N/A   Clear
11:36 PM 51.8 °F 50.0 °F 94% 30.06 in 10.0 mi Calm Calm - N/A   Clear
11:55 PM 51.8 °F 48.2 °F 88% 30.06 in 10.0 mi Calm Calm - N/A   Clear